Find Shi Jian 6/2A

NORAD ID: 29506 Int'l Des: 2006-046 Owner: CASC Country: CN operational
LEOCIRCULARRETROGRADESSO

实时位置

正在加载3D地球...

关于 Shi Jian 6/2A

正在加载描述...

即将过境

Passes for default location (London). Set your location on the main map for personalized predictions.

高度历史

Loading altitude history...

两行轨道根数

1 29506U 06046B 26121.22464385 .00001929 00000-0 15481-3 0 9997
2 29506 97.7142 150.5774 0010955 220.1524 139.8892 15.01234565 63695
Epoch: May 1, 2026 • Age: 6 hours

当前状态

高度 585.7 km
速度 7.57 km/s
星下点 -79.99°S, 108.73°W
发射日期 Oct 23, 2006
运行时间 19.5 years
类型 other

技术详情

分类 Payload
质量 350.00 kg
干质量 350.00 kg
总质量 350.00 kg
长度 1.00 m
直径 1.00 m
跨度 4.00 m
形状 Box + 2 Pan
制造商 DFHZ
平台类型 CAST-968
阶段状态 In Orbit
所有者/国家 CASC/CN

Most Searched